Llano, TX

11:50 PM CST on December 17, 2017 (GMT -0600)
Llano

Weather History for KAQO - December, 2013

Change the Weather History Date:

Monday, December 2, 2013

  Actual Average (KBMQ) Record (KBMQ)
Temperature  
Mean Temperature 63 °F -  
Max Temperature 82 °F 61 °F 80 °F (2013)
Min Temperature 44 °F 42 °F 33 °F (2008)
Degree Days  
Heating Degree Days 2    
Growing Degree Days 13 (Base 50)    
Moisture  
Dew Point 45 °F    
Average Humidity 68    
Maximum Humidity 100    
Minimum Humidity 17    
Precipitation  
Precipitation 0.00 in - - ()
Sea Level Pressure  
Sea Level Pressure 29.84 in    
Wind  
Wind Speed 3 mph (West)    
Max Wind Speed 16 mph    
Max Gust Speed 22 mph    
Visibility 8 miles    
Events Fog , Thunderstorm    
Averages and records for this station are not official NWS values.
T = Trace of Precipitation, MM = Missing Value Source: NWS Daily Summary

Daily Weather History Graph

Daily Weather History Graph

Search for Another Location

Airport or City:

Trip Planner

Search our weather history database for the weather conditions in past years. The results will help you decide how hot, cold, wet, or windy it might be!

Date:

Astronomy

Dec. 02, 2013 Rise Set
Actual Time 7:15 AM CST 5:32 PM CST
Civil Twilight 6:49 AM CST 5:58 PM CST
Nautical Twilight 6:19 AM CST 6:28 PM CST
Astronomical Twilight 5:50 AM CST 6:58 PM CST
Moon 6:44 AM CST (12/2) 5:35 PM CST (12/2)
Length of Visible Light 11h 09m
Length of Day
10h 17m
Waning Crescent, 0% of the Moon is Illuminated
Dec 2
Waning Crescent
Dec 2
New
Dec 9
First Quarter
Dec 17
Full
Dec 25
Last Quarter

Hourly Weather History & Observations

Time (CST) Temp. Windchill Dew Point Humidity Pressure Visibility Wind Dir Wind Speed Gust Speed Precip Events Conditions
12:15 AM 57.2 °F - 53.6 °F 88% 29.99 in 10.0 mi Calm Calm - N/A   Clear
12:35 AM 57.2 °F - 55.4 °F 94% 29.99 in 10.0 mi Calm Calm - N/A   Clear
12:55 AM 55.4 °F - 53.6 °F 94% 29.97 in 10.0 mi Calm Calm - N/A   Clear
1:15 AM 55.4 °F - 53.6 °F 94% 29.98 in 10.0 mi Calm Calm - N/A   Clear
1:35 AM 53.6 °F - 53.6 °F 100% 29.97 in 9.0 mi Calm Calm - N/A   Clear
1:55 AM 53.6 °F - 53.6 °F 100% 29.96 in 9.0 mi Calm Calm - N/A   Clear
2:15 AM 53.6 °F - 53.6 °F 100% 29.96 in 8.0 mi Calm Calm - N/A   Clear
2:35 AM 53.6 °F - 53.6 °F 100% 29.96 in 8.0 mi Calm Calm - N/A   Clear
2:55 AM 53.6 °F - 53.6 °F 100% 29.95 in 10.0 mi Calm Calm - N/A   Clear
3:15 AM 53.6 °F - 51.8 °F 94% 29.94 in 8.0 mi Calm Calm - N/A   Clear
3:35 AM 55.4 °F - 53.6 °F 94% 29.94 in 10.0 mi Calm Calm - N/A   Clear
3:55 AM 55.4 °F - 53.6 °F 94% 29.94 in 9.0 mi Calm Calm - N/A   Clear
4:15 AM 53.6 °F - 53.6 °F 100% 29.93 in 6.0 mi Calm Calm - N/A   Clear
4:35 AM 48.2 °F - 46.4 °F 93% 29.92 in 4.0 mi Calm Calm - N/A   Clear
4:55 AM 48.2 °F - 46.4 °F 93% 29.92 in 2.5 mi Calm Calm - N/A   Clear
5:15 AM 48.2 °F - 48.2 °F 100% 29.91 in 0.8 mi Calm Calm - N/A   Mist
5:35 AM 44.6 °F - 44.6 °F 100% 29.91 in 0.2 mi Calm Calm - N/A Fog Fog
5:55 AM 46.4 °F - 46.4 °F 100% 29.91 in 0.5 mi Calm Calm - N/A Fog Fog
6:15 AM 46.4 °F - 44.6 °F 93% 29.90 in 0.2 mi Calm Calm - N/A Fog Fog
6:35 AM 44.6 °F 42.2 °F 44.6 °F 100% 29.91 in 0.2 mi West 4.6 mph - N/A Fog Fog
6:55 AM 44.6 °F - 44.6 °F 100% 29.90 in 0.2 mi Calm Calm - N/A Fog Fog
7:15 AM 44.6 °F - 44.6 °F 100% 29.91 in 0.2 mi Calm Calm - N/A Fog Fog
7:35 AM 46.4 °F - 46.4 °F 100% 29.91 in 0.2 mi Calm Calm - N/A Fog Fog
7:55 AM 48.2 °F - 48.2 °F 100% 29.92 in 1.0 mi Calm Calm - N/A   Clear
8:15 AM 51.8 °F - 51.8 °F 100% 29.92 in 4.0 mi WNW 6.9 mph - N/A   Clear
8:35 AM 53.6 °F - 53.6 °F 100% 29.92 in 5.0 mi West 4.6 mph - N/A   Clear
8:55 AM 55.4 °F - 55.4 °F 100% 29.91 in 5.0 mi West 5.8 mph - N/A   Clear
9:15 AM 55.4 °F - 55.4 °F 100% 29.92 in 8.0 mi WSW 5.8 mph - N/A   Clear
9:35 AM 57.2 °F - 57.2 °F 100% 29.91 in 9.0 mi Calm Calm - N/A   Clear
9:55 AM 60.8 °F - 53.6 °F 77% 29.91 in 10.0 mi West 5.8 mph - N/A   Clear
10:15 AM 62.6 °F - 55.4 °F 77% 29.91 in 10.0 mi WSW 6.9 mph - N/A   Clear
10:35 AM 64.4 °F - 53.6 °F 68% 29.90 in 10.0 mi WSW 8.1 mph - N/A   Clear
10:55 AM 66.2 °F - 51.8 °F 60% 29.89 in 10.0 mi WSW 8.1 mph - N/A   Clear
11:15 AM 68.0 °F - 51.8 °F 56% 29.88 in 10.0 mi West 8.1 mph - N/A   Clear
11:35 AM 69.8 °F - 50.0 °F 49% 29.86 in 10.0 mi West 10.4 mph - N/A   Clear
11:55 AM 71.6 °F - 48.2 °F 43% 29.85 in 10.0 mi WSW 8.1 mph - N/A   Clear
12:15 PM 73.4 °F - 51.8 °F 47% 29.83 in 10.0 mi WSW 8.1 mph - N/A   Clear
12:35 PM 75.2 °F - 50.0 °F 41% 29.81 in 10.0 mi WSW 9.2 mph - N/A   Clear
12:55 PM 77.0 °F - 44.6 °F 32% 29.79 in 10.0 mi SW 11.5 mph - N/A   Clear
1:15 PM 78.8 °F - 42.8 °F 28% 29.77 in 10.0 mi WSW 16.1 mph 19.6 mph N/A   Clear
1:35 PM 78.8 °F - 42.8 °F 28% 29.75 in 10.0 mi SW 11.5 mph - N/A   Clear
1:55 PM 80.6 °F - 37.4 °F 21% 29.74 in 10.0 mi WSW 12.7 mph 18.4 mph N/A   Clear
2:15 PM 80.6 °F - 37.4 °F 21% 29.74 in 9.0 mi WSW 11.5 mph 16.1 mph N/A   Clear
2:35 PM 80.6 °F - 37.4 °F 21% 29.73 in 10.0 mi WSW 12.7 mph 17.3 mph N/A   Clear
2:55 PM 82.4 °F - 33.8 °F 17% 29.72 in 10.0 mi West 11.5 mph 18.4 mph N/A Thunderstorm Thunderstorm
3:15 PM 80.6 °F - 33.8 °F 18% 29.72 in 10.0 mi WSW 11.5 mph 16.1 mph N/A   Clear
3:35 PM 80.6 °F - 35.6 °F 20% 29.72 in 10.0 mi WSW 16.1 mph 21.9 mph N/A   Clear
3:55 PM 80.6 °F - 35.6 °F 20% 29.71 in 10.0 mi West 11.5 mph - N/A   Clear
4:15 PM 80.6 °F - 35.6 °F 20% 29.71 in 10.0 mi West 11.5 mph - N/A   Clear
4:35 PM 78.8 °F - 35.6 °F 21% 29.71 in 10.0 mi West 10.4 mph 16.1 mph N/A   Clear
4:55 PM 78.8 °F - 37.4 °F 23% 29.71 in 10.0 mi West 6.9 mph - N/A   Clear
5:15 PM 75.2 °F - 37.4 °F 25% 29.71 in 10.0 mi WSW 6.9 mph - N/A   Clear
5:35 PM 73.4 °F - 37.4 °F 27% 29.72 in 10.0 mi West 5.8 mph - N/A   Clear
5:55 PM 71.6 °F - 37.4 °F 29% 29.73 in 10.0 mi Calm Calm - N/A   Clear
6:15 PM 69.8 °F - 39.2 °F 33% 29.74 in 10.0 mi Calm Calm - N/A   Clear
6:35 PM 64.4 °F - 42.8 °F 45% 29.75 in 10.0 mi Calm Calm - N/A   Clear
6:55 PM 60.8 °F - 41.0 °F 48% 29.76 in 10.0 mi Calm Calm - N/A   Clear
7:15 PM 57.2 °F - 41.0 °F 55% 29.76 in 10.0 mi Calm Calm - N/A   Clear
7:35 PM 55.4 °F - 42.8 °F 63% 29.76 in 10.0 mi Calm Calm - N/A   Clear
7:55 PM 55.4 °F - 42.8 °F 63% 29.75 in 10.0 mi Calm Calm - N/A   Clear
8:15 PM 59.0 °F - 39.2 °F 48% 29.75 in 10.0 mi WSW 5.8 mph - N/A   Clear
8:35 PM 53.6 °F - 42.8 °F 67% 29.75 in 10.0 mi Calm Calm - N/A   Clear
8:55 PM 48.2 °F - 42.8 °F 82% 29.75 in 10.0 mi Calm Calm - N/A   Clear
9:15 PM 48.2 °F - 41.0 °F 76% 29.75 in 10.0 mi NNW 3.5 mph - N/A   Clear
9:35 PM 48.2 °F - 39.2 °F 71% 29.75 in 10.0 mi Calm Calm - N/A   Clear
9:55 PM 50.0 °F - 39.2 °F 66% 29.75 in 10.0 mi Calm Calm - N/A   Clear
10:15 PM 48.2 °F - 39.2 °F 71% 29.76 in 10.0 mi Calm Calm - N/A   Clear
10:35 PM 48.2 °F - 39.2 °F 71% 29.76 in 10.0 mi North 4.6 mph - N/A   Clear
10:55 PM 44.6 °F - 39.2 °F 81% 29.75 in 10.0 mi Calm Calm - N/A   Clear
11:15 PM 46.4 °F - 39.2 °F 76% 29.75 in 10.0 mi Calm Calm - N/A   Clear
11:35 PM 44.6 °F - 39.2 °F 81% 29.75 in 10.0 mi Calm Calm - N/A   Clear
11:55 PM 44.6 °F - 39.2 °F 81% 29.75 in 10.0 mi Calm Calm - N/A   Clear